PCSAT (NO-44) (26931 NORAD) Tracking and Keplerian Element Data

This shows tracking and keplerian element data for the satellite.

Feedback or suggestion? Click here.




ElementValue
Catalog26931
NamePCSAT (NO-44)
Epoch Orbit10373
Epoch Day324.55012649
Epoch Year2022
RAAN15.4714
Inclination67.0526
Eccentricity0.0005225
Argument of Perigee266.8652
Mean Anonmoly93.1852
Mean Motion14.30765578
Decay Rate1.01E-06
L11 26931U 01043C 22324.55012649 .00000101 00000+0 70293-4 0 9990
L22 26931 67.0526 15.4714 0005225 266.8652 93.1852 14.30765578103738



Live tracking and technical data element details for PCSAT (NO-44) (NORAD 26931). PCSAT (NO-44) can be tracked NOW for your location showing map with azimuth and elevation plus other details from your city location.







IsCatalogInMostPopularTable: catalog: 26931, numindb: 1224
Update: records affected: 1



GetName: 26931 PCSAT (NO-44)

Hit Count: updated at: Sun, 04 Dec 2022 21:56:16 GMT